Regional Weather Roundup
Issued by NWS

Home | Current Version | Previous Version | Graphics & Text | Print | Product List | Glossary On
Versions: 1 2 3 4 5 6 7 8 9 10 11 12 13 14 15 16 17 18 19 20 21 22 23 24 25 26 27 28 29 30 31 32 33 34 35 36 37 38 39 40 41 42 43 44 45 46 47 48 49 50
000
ASUS45 KCYS 291110
RWRWY

WYOMING REGIONAL WEATHER ROUNDUP
NATIONAL WEATHER SERVICE CHEYENNE WY
400 AM MST MON DEC 29 2014

NOTE:  "FAIR" INDICATES FEW OR NO CLOUDS BELOW 12,000 FEET
WITH NO SIGNIFICANT WEATHER AND/OR OBSTRUCTIONS TO VISIBILITY.

WYZ001-291200-
YELLOWSTONE NATIONAL PARK

CITY           SKY/WX    TMP DP  RH WIND       PRES   REMARKS
LK YELLOWSTONE   N/A     -1  -5  82 CALM      29.97S
W YELLOWSTONE  NOT AVBL

$$
WYZ002>013-054>058-071-098>099-291200-
NORTHERN WYOMING

CITY           SKY/WX    TMP DP  RH WIND       PRES   REMARKS
JACKSON        CLOUDY     1   1 100 N5        29.99S WCI  -8
CODY           CLOUDY    10   9  92 N13       30.19S WCI  -5
GREYBULL       CLOUDY    13   7  77 NW8       30.23R WCI   2
WORLAND        LGT SNOW  12   8  84 NW6       30.22S FOG     WCI   3
SHERIDAN       LGT SNOW   9   4  80 NW16      30.32R VSB 1   WCI  -8
BUFFALO        LGT SNOW   7   4  87 N26G32    30.20R FOG     WCI -15
GILLETTE       LGT SNOW   8   4  83 NW18      30.22R FOG     WCI -11
HULETT           N/A    N/A N/A N/A MISG        N/A
NEWCASTLE      FAIR      16  12  86 CALM      30.17R

$$
WYZ014>020-022>026-101>103-291200-
CENTRAL WYOMING

CITY           SKY/WX    TMP DP  RH WIND       PRES   REMARKS
BIG PINEY      CLOUDY    -5 -11  75 E3        29.98R
PINEDALE       LGT SNOW N/A N/A N/A CALM      29.97S
DUBOIS         NOT AVBL
LANDER         LGT SNOW  13   9  84 NW6       30.10S FOG     WCI   4
RIVERTON       LGT SNOW  11   7  84 NE10      30.11R FOG     WCI  -3
CASPER         LGT SNOW  10   5  80 N22       30.11R WCI -10
DOUGLAS        LGT SNOW  16  13  88 N7        30.13R FOG     WCI   6

$$
WYZ021-027>030-104>119-291200-
SOUTHERN WYOMING

CITY           SKY/WX    TMP DP  RH WIND       PRES   REMARKS
EVANSTON       CLOUDY    12   9  87 E5        29.91S FOG     WCI   4
KEMMERER       CLOUDY     3   0  85 N9        29.93S WCI -11
FORT BRIDGER   LGT SNOW   8   7  94 E7        29.97R WCI  -3
ROCK SPRINGS   LGT SNOW   9   5  84 NE13      29.97S FOG     WCI  -7
DIXON          PTSUNNY    2  -1  85 CALM      29.99S
RAWLINS        LGT SNOW   6   2  83 NE6       29.97S FOG     WCI  -4
SARATOGA       LGT SNOW   9   7  92 MISG      29.95F
LARAMIE        LGT SNOW   8   5  87 NW3       29.93S FOG
CHEYENNE       LGT SNOW  14  10  84 N10       29.99R FOG     WCI   1
TORRINGTON     LGT SNOW  13   8  81 NE10      30.12R WCI   0
PINE BLUFFS    CLOUDY    14  12  92 N10       30.04R WCI   1

$$



USA.gov is the U.S. government's official web portal to all federal, state and local government web resources and services.